Benton Harbor, MI

10:54 PM EDT on September 20, 2017 (GMT -0400)
Southwest Michigan Regional

Weather History for KBEH - November, 2013

Change the Weather History Date:

Saturday, November 2, 2013

  Actual Average Record
Temperature  
Mean Temperature 44 °F -  
Max Temperature 48 °F 57 °F 77 °F (1961)
Min Temperature 39 °F 40 °F 19 °F (2014)
Degree Days  
Heating Degree Days 22    
Moisture  
Dew Point 41 °F    
Average Humidity 87    
Maximum Humidity 100    
Minimum Humidity 71    
Precipitation  
Precipitation 0.50 in - - ()
Sea Level Pressure  
Sea Level Pressure 29.85 in    
Wind  
Wind Speed 7 mph (NW)    
Max Wind Speed 12 mph    
Max Gust Speed 23 mph    
Visibility 7 miles    
Events Rain    
Averages and records for this station are not official NWS values.
T = Trace of Precipitation, MM = Missing Value Source: NWS Daily Summary

Daily Weather History Graph

Daily Weather History Graph

Search for Another Location

Airport or City:

Trip Planner

Search our weather history database for the weather conditions in past years. The results will help you decide how hot, cold, wet, or windy it might be!

Date:

Astronomy

Nov. 02, 2013 Rise Set
Actual Time 8:20 AM EDT 6:37 PM EDT
Civil Twilight 7:50 AM EDT 7:06 PM EDT
Nautical Twilight 7:17 AM EDT 7:40 PM EDT
Astronomical Twilight 6:45 AM EDT 8:12 PM EDT
Moon 7:16 AM EDT (11/2) 6:09 PM EDT (11/2)
Length of Visible Light 11h 16m
Length of Day
10h 17m
Waning Crescent, 1% of the Moon is Illuminated
Nov 2
Waning Crescent
Nov 3
New
Nov 10
First Quarter
Nov 17
Full
Nov 25
Last Quarter

Hourly Weather History & Observations

Time (EDT) Temp. Windchill Dew Point Humidity Pressure Visibility Wind Dir Wind Speed Gust Speed Precip Events Conditions
12:01 AM 44.6 °F 40.7 °F 44.6 °F 100% 29.70 in 3.0 mi WNW 6.9 mph - 0.01 in Rain Rain
12:26 AM 46.4 °F 41.9 °F 42.8 °F 87% 29.70 in 10.0 mi WNW 9.2 mph 16.1 mph 0.02 in Rain Light Rain
12:53 AM 46.0 °F 41.9 °F 43.0 °F 89% 29.70 in 10.0 mi WNW 8.1 mph - 0.02 in   Overcast
1:15 AM 46.4 °F 42.9 °F 42.8 °F 87% 29.70 in 10.0 mi WNW 6.9 mph - N/A   Overcast
1:53 AM 46.0 °F 41.0 °F 43.0 °F 89% 29.71 in 9.0 mi WNW 10.4 mph 17.3 mph 0.00 in   Overcast
2:53 AM 46.9 °F - 41.0 °F 80% 29.72 in 10.0 mi WNW 11.5 mph - N/A   Overcast
3:53 AM 46.9 °F - 41.0 °F 80% 29.72 in 10.0 mi WNW 8.1 mph 17.3 mph N/A   Overcast
4:53 AM 46.9 °F - 42.1 °F 83% 29.73 in 10.0 mi WNW 11.5 mph 20.7 mph N/A   Overcast
5:01 AM 46.4 °F 41.9 °F 42.8 °F 87% 29.72 in 10.0 mi WNW 9.2 mph 19.6 mph N/A   Overcast
5:14 AM 44.6 °F 39.7 °F 42.8 °F 93% 29.72 in 4.0 mi West 9.2 mph 19.6 mph 0.02 in Rain Rain
5:21 AM 44.6 °F 39.7 °F 42.8 °F 93% 29.72 in 8.0 mi WNW 9.2 mph - 0.02 in Rain Light Rain
5:34 AM 46.4 °F 41.1 °F 42.8 °F 87% 29.73 in 9.0 mi NW 11.5 mph 17.3 mph 0.02 in Rain Light Rain
5:53 AM 46.0 °F 41.4 °F 42.1 °F 86% 29.74 in 10.0 mi WNW 9.2 mph - 0.02 in   Overcast
6:51 AM 44.6 °F 40.2 °F 42.8 °F 93% 29.75 in 6.0 mi NW 8.1 mph - 0.01 in Rain Light Rain
6:53 AM 44.1 °F 39.5 °F 42.1 °F 93% 29.76 in 4.0 mi NNW 8.1 mph - 0.02 in Rain Rain
7:00 AM 44.6 °F 38.8 °F 41.0 °F 87% 29.75 in 2.5 mi NW 11.5 mph 17.3 mph 0.01 in Rain Rain
7:07 AM 44.6 °F 40.2 °F 42.8 °F 93% 29.75 in 3.0 mi WNW 8.1 mph 23.0 mph 0.03 in Rain Rain
7:34 AM 44.6 °F 40.2 °F 42.8 °F 93% 29.76 in 2.5 mi WNW 8.1 mph - 0.06 in Rain Light Rain
7:41 AM 44.6 °F 42.2 °F 42.8 °F 93% 29.76 in 6.0 mi Variable 4.6 mph - 0.07 in Rain Light Rain
7:53 AM 46.0 °F 42.5 °F 42.1 °F 86% 29.77 in 10.0 mi Variable 6.9 mph - 0.07 in   Overcast
8:20 AM 46.4 °F 42.9 °F 42.8 °F 87% 29.77 in 10.0 mi NNW 6.9 mph - N/A   Overcast
8:53 AM 45.0 °F - 41.0 °F 86% 29.80 in 7.0 mi Calm Calm - 0.00 in Rain Light Rain
9:12 AM 44.6 °F 42.2 °F 42.8 °F 93% 29.80 in 5.0 mi NE 4.6 mph - 0.01 in Rain Light Rain
9:18 AM 44.6 °F 43.1 °F 42.8 °F 93% 29.80 in 2.0 mi WNW 3.5 mph - 0.03 in Rain Rain
9:22 AM 44.6 °F - 42.8 °F 93% 29.81 in 1.2 mi Calm Calm - 0.05 in Rain Rain
9:53 AM 43.0 °F 40.3 °F 42.1 °F 97% 29.84 in 1.2 mi NE 4.6 mph - 0.18 in Rain Rain
9:56 AM 42.8 °F 39.3 °F 42.8 °F 100% 29.83 in 1.5 mi Variable 5.8 mph - 0.01 in Rain Rain
10:02 AM 42.8 °F 38.0 °F 41.0 °F 93% 29.83 in 3.0 mi ENE 8.1 mph - 0.01 in Rain Light Rain
10:29 AM 42.8 °F 41.1 °F 42.8 °F 100% 29.84 in 3.0 mi NE 3.5 mph - 0.03 in Rain Light Rain
10:53 AM 43.0 °F - 43.0 °F 100% 29.86 in 3.0 mi Calm Calm - 0.06 in Rain Rain
11:33 AM 46.4 °F 45.2 °F 42.8 °F 87% 29.85 in 10.0 mi ENE 3.5 mph - 0.00 in   Overcast
11:53 AM 46.0 °F - 42.1 °F 86% 29.88 in 10.0 mi Calm Calm - 0.00 in   Overcast
12:28 PM 44.6 °F - 39.2 °F 81% 29.89 in 2.5 mi Calm Calm - 0.03 in Rain Light Rain
12:53 PM 44.1 °F - 42.1 °F 93% 29.91 in 10.0 mi Calm Calm - 0.05 in Rain Light Rain
1:23 PM 44.6 °F - 42.8 °F 93% 29.90 in 2.5 mi Calm Calm - 0.02 in Rain Light Rain
1:30 PM 44.6 °F - 42.8 °F 93% 29.90 in 8.0 mi Calm Calm - 0.02 in Rain Light Rain
1:37 PM 44.6 °F - 42.8 °F 93% 29.90 in 10.0 mi Calm Calm - 0.02 in   Overcast
1:53 PM 46.9 °F - 42.1 °F 83% 29.91 in 10.0 mi Variable 5.8 mph - 0.02 in   Overcast
2:53 PM 46.9 °F - 39.9 °F 77% 29.93 in 10.0 mi Variable 5.8 mph - 0.01 in   Overcast
3:53 PM 46.9 °F - 37.9 °F 71% 29.95 in 10.0 mi WNW 11.5 mph 19.6 mph N/A   Mostly Cloudy
4:53 PM 46.0 °F 41.0 °F 37.9 °F 73% 29.97 in 10.0 mi NW 10.4 mph 18.4 mph N/A   Mostly Cloudy
5:53 PM 46.0 °F 43.1 °F 39.0 °F 76% 29.99 in 10.0 mi NNW 5.8 mph 20.7 mph N/A   Mostly Cloudy
6:00 PM 44.6 °F 39.2 °F 39.2 °F 81% 29.98 in 10.0 mi NW 10.4 mph 19.6 mph N/A   Mostly Cloudy
6:53 PM 45.0 °F 41.8 °F 39.0 °F 80% 30.01 in 10.0 mi Variable 5.8 mph - 0.00 in   Overcast
7:30 PM 44.6 °F 40.7 °F 39.2 °F 81% 30.01 in 10.0 mi Variable 6.9 mph - N/A   Overcast
7:48 PM 46.4 °F 42.4 °F 37.4 °F 71% 30.02 in 10.0 mi NW 8.1 mph - N/A   Overcast
7:53 PM 45.0 °F 41.2 °F 37.9 °F 76% 30.04 in 10.0 mi NW 6.9 mph - N/A   Overcast
8:34 PM 46.4 °F 43.5 °F 37.4 °F 71% 30.04 in 10.0 mi Variable 5.8 mph - N/A   Overcast
8:45 PM 44.6 °F 41.4 °F 37.4 °F 76% 30.05 in 9.0 mi Variable 5.8 mph - N/A   Overcast
8:53 PM 45.0 °F 40.1 °F 39.0 °F 80% 30.06 in 8.0 mi NW 9.2 mph - 0.00 in Rain Light Rain
9:53 PM 43.0 °F 38.2 °F 39.0 °F 86% 30.08 in 4.0 mi ENE 8.1 mph - 0.02 in Rain Light Rain
10:53 PM 41.0 °F - 39.0 °F 93% 30.10 in 10.0 mi Calm Calm - 0.03 in   Overcast
11:53 PM 39.9 °F - 39.0 °F 97% 30.11 in 9.0 mi Calm Calm - N/A   Overcast